JEC5839 SCEL-SKRG

Flight info

Callsign JEC5839
Flight time N/A
Altitude 36000
Route DONTI UT131 ESNOX UT200 TOY UL300 DADKI/N0459F380 UL300 IQT/N0460F370 UL300 ROLUS/N0457F380 UN420 ORBAB/N0461F370 UM779 GIR/N0458F380 UL305 MQU UP530 RNG RNG4C
Aircraft A20N/M-SDE1FGHIJ2RWYZ/LB1

Departure

Time 2026-05-04 06:07
Airport Comodoro Arturo Merino Benítez International Airport (SCEL)

Arrival

Time N/A
Airport Jose Maria Córdova International Airport (SKRG)
Time Latitude Longitude Altitude Speed Heading
2026-05-04 05:28 -33.40386 -70.79760 1563 ft 0 kts 359°
2026-05-04 05:51 -33.40439 -70.79752 1563 ft 2 kts 334°
2026-05-04 05:51 -33.40453 -70.79742 1563 ft 2 kts 319°
2026-05-04 05:52 -33.40464 -70.79726 1563 ft 2 kts 302°
2026-05-04 05:52 -33.40472 -70.79707 1563 ft 2 kts 285°
2026-05-04 05:52 -33.40474 -70.79685 1563 ft 2 kts 268°
2026-05-04 05:52 -33.40473 -70.79667 1563 ft 0 kts 267°
2026-05-04 05:53 -33.40473 -70.79666 1563 ft 0 kts 268°
2026-05-04 05:54 -33.40474 -70.79701 1563 ft 2 kts 268°
2026-05-04 05:55 -33.40476 -70.79736 1563 ft 4 kts 268°
2026-05-04 05:55 -33.40477 -70.79780 1563 ft 5 kts 268°
2026-05-04 05:55 -33.40479 -70.79835 1563 ft 6 kts 268°
2026-05-04 05:55 -33.40485 -70.79899 1563 ft 7 kts 263°
2026-05-04 05:56 -33.40479 -70.79970 1563 ft 7 kts 306°
2026-05-04 05:56 -33.40427 -70.79993 1563 ft 8 kts 354°
2026-05-04 05:56 -33.40366 -70.79996 1563 ft 9 kts 359°
2026-05-04 05:56 -33.40300 -70.79999 1563 ft 9 kts 358°
2026-05-04 05:57 -33.40228 -70.80003 1563 ft 10 kts 358°
2026-05-04 05:57 -33.40151 -70.80006 1563 ft 11 kts 357°
2026-05-04 05:57 -33.40068 -70.80012 1563 ft 11 kts 357°
2026-05-04 05:57 -33.39980 -70.80018 1563 ft 12 kts 357°
2026-05-04 05:58 -33.39883 -70.80023 1563 ft 12 kts 357°
2026-05-04 05:58 -33.39786 -70.80029 1563 ft 13 kts 358°
2026-05-04 05:58 -33.39682 -70.80034 1563 ft 13 kts 358°
2026-05-04 05:58 -33.39576 -70.80040 1563 ft 13 kts 357°
2026-05-04 05:59 -33.39468 -70.80046 1563 ft 13 kts 357°
2026-05-04 05:59 -33.39357 -70.80052 1563 ft 14 kts 357°
2026-05-04 05:59 -33.39247 -70.80058 1563 ft 14 kts 357°
2026-05-04 05:59 -33.39142 -70.80064 1563 ft 14 kts 357°
2026-05-04 06:00 -33.39026 -70.80070 1563 ft 14 kts 357°
2026-05-04 06:00 -33.38908 -70.80077 1563 ft 14 kts 357°
2026-05-04 06:00 -33.38789 -70.80084 1563 ft 14 kts 357°
2026-05-04 06:00 -33.38669 -70.80090 1563 ft 14 kts 357°
2026-05-04 06:01 -33.38549 -70.80097 1563 ft 14 kts 358°
2026-05-04 06:01 -33.38427 -70.80103 1563 ft 14 kts 358°
2026-05-04 06:03 -33.37570 -70.80151 1563 ft 15 kts 357°
2026-05-04 06:03 -33.37447 -70.80158 1563 ft 15 kts 358°
2026-05-04 06:05 -33.37216 -70.80370 1563 ft 0 kts 177°
2026-05-04 06:06 -33.37429 -70.80360 1562 ft 67 kts 177°
2026-05-04 06:07 -33.38132 -70.80321 1563 ft 131 kts 177°
2026-05-04 06:07 -33.39197 -70.80261 1654 ft 170 kts 177°
2026-05-04 06:07 -33.40496 -70.80189 2222 ft 175 kts 178°
2026-05-04 06:07 -33.41869 -70.80132 2946 ft 175 kts 178°
2026-05-04 06:08 -33.43261 -70.80074 3507 ft 180 kts 178°
2026-05-04 06:08 -33.44807 -70.80013 3840 ft 199 kts 181°
2026-05-04 06:08 -33.46365 -70.80717 4169 ft 218 kts 227°
2026-05-04 06:08 -33.47023 -70.82761 4471 ft 240 kts 269°
2026-05-04 06:09 -33.46965 -70.85186 4914 ft 259 kts 272°
2026-05-04 06:09 -33.46928 -70.87837 5473 ft 276 kts 269°
2026-05-04 06:11 -33.39108 -71.01814 10473 ft 304 kts 342°
2026-05-04 06:11 -33.36608 -71.02773 10737 ft 318 kts 341°
2026-05-04 06:13 -33.16713 -71.10553 13848 ft 367 kts 339°
2026-05-04 06:14 -32.98725 -71.17570 17103 ft 392 kts 341°
2026-05-04 06:14 -32.95516 -71.18763 17689 ft 398 kts 344°
2026-05-04 06:15 -32.92227 -71.19699 18222 ft 403 kts 348°
2026-05-04 06:15 -32.88862 -71.20516 18784 ft 405 kts 348°
2026-05-04 06:15 -32.85528 -71.21321 19302 ft 409 kts 348°
2026-05-04 06:15 -32.82167 -71.22126 19649 ft 412 kts 347°
2026-05-04 06:16 -32.78728 -71.22947 20070 ft 414 kts 345°
2026-05-04 06:16 -32.75290 -71.23769 20599 ft 415 kts 342°
2026-05-04 06:16 -32.71838 -71.24607 21203 ft 415 kts 341°
2026-05-04 06:16 -32.68427 -71.25449 21751 ft 417 kts 341°
2026-05-04 06:17 -32.64854 -71.26333 22210 ft 421 kts 341°
2026-05-04 06:17 -32.61286 -71.27213 22663 ft 425 kts 341°
2026-05-04 06:17 -32.57692 -71.28091 23138 ft 428 kts 341°
2026-05-04 06:17 -32.54083 -71.28973 23592 ft 432 kts 341°
2026-05-04 06:18 -32.50428 -71.29862 24101 ft 434 kts 341°
2026-05-04 06:18 -32.46782 -71.30749 24520 ft 438 kts 341°
2026-05-04 06:18 -32.43104 -71.31640 24949 ft 441 kts 341°
2026-05-04 06:20 -32.16717 -71.38006 28033 ft 449 kts 341°
2026-05-04 06:20 -32.12964 -71.38910 28449 ft 449 kts 341°
2026-05-04 06:21 -31.97914 -71.42524 30173 ft 444 kts 340°
2026-05-04 06:21 -31.94219 -71.43409 30515 ft 444 kts 341°
2026-05-04 06:22 -31.90513 -71.44298 30834 ft 443 kts 340°
2026-05-04 06:22 -31.86895 -71.45165 31154 ft 443 kts 340°
2026-05-04 06:25 -31.38397 -71.48364 34699 ft 443 kts 352°
2026-05-04 06:25 -31.34640 -71.48331 34902 ft 443 kts 352°
2026-05-04 06:26 -31.30971 -71.48296 35169 ft 440 kts 351°
2026-05-04 06:26 -31.27293 -71.48260 35372 ft 440 kts 351°
2026-05-04 06:26 -31.23560 -71.48228 35436 ft 442 kts 351°
2026-05-04 06:26 -31.19882 -71.48197 35578 ft 441 kts 351°
2026-05-04 06:27 -31.05043 -71.48064 36046 ft 441 kts 351°
2026-05-04 06:28 -30.97618 -71.47998 36031 ft 440 kts 351°
2026-05-04 06:28 -30.90239 -71.47931 36023 ft 440 kts 351°
2026-05-04 06:29 -30.82884 -71.47868 36021 ft 441 kts 351°
2026-05-04 06:29 -30.75422 -71.47800 36022 ft 442 kts 351°
2026-05-04 06:30 -30.68049 -71.47732 36015 ft 440 kts 351°
2026-05-04 06:30 -30.60650 -71.47665 36014 ft 441 kts 351°
2026-05-04 06:31 -30.53224 -71.47598 36009 ft 440 kts 351°
2026-05-04 06:31 -30.45794 -71.47533 36006 ft 441 kts 351°
2026-05-04 06:33 -30.15639 -71.46118 35999 ft 449 kts 355°
2026-05-04 06:34 -30.08052 -71.45321 35990 ft 445 kts 355°
2026-05-04 06:34 -30.00527 -71.44540 35988 ft 446 kts 356°
2026-05-04 06:36 -29.70383 -71.41406 35989 ft 445 kts 355°
2026-05-04 06:37 -29.62826 -71.40630 35996 ft 448 kts 356°
2026-05-04 06:37 -29.55354 -71.39854 35995 ft 445 kts 356°
2026-05-04 06:38 -29.47922 -71.39085 35996 ft 445 kts 355°
2026-05-04 06:40 -29.18144 -71.36018 35995 ft 446 kts 355°
2026-05-04 06:40 -29.10774 -71.35260 36006 ft 446 kts 355°
2026-05-04 06:41 -29.03319 -71.34497 36008 ft 445 kts 355°
2026-05-04 06:41 -28.95862 -71.33730 36008 ft 446 kts 355°
2026-05-04 06:42 -28.88343 -71.32962 36008 ft 445 kts 356°
2026-05-04 06:44 -28.58312 -71.29906 36002 ft 444 kts 356°
2026-05-04 06:44 -28.50857 -71.29151 35995 ft 445 kts 356°
2026-05-04 06:45 -28.43332 -71.28384 35992 ft 444 kts 356°
2026-05-04 06:45 -28.35881 -71.27627 35990 ft 444 kts 356°
2026-05-04 06:46 -28.28411 -71.26872 35986 ft 445 kts 356°
2026-05-04 06:46 -28.20925 -71.26116 35982 ft 445 kts 356°
2026-05-04 06:48 -27.90820 -71.23093 35986 ft 444 kts 357°
2026-05-04 06:50 -27.60426 -71.20066 35992 ft 443 kts 357°
2026-05-04 06:51 -27.52894 -71.19318 35988 ft 444 kts 357°
2026-05-04 06:51 -27.45278 -71.18562 35984 ft 444 kts 357°
2026-05-04 06:52 -27.37674 -71.17804 35988 ft 444 kts 357°
2026-05-04 06:52 -27.30065 -71.17045 35994 ft 444 kts 357°
2026-05-04 06:53 -27.22487 -71.16293 35998 ft 445 kts 358°
2026-05-04 06:53 -27.14874 -71.15541 35998 ft 444 kts 358°
2026-05-04 06:54 -27.07255 -71.14787 35996 ft 443 kts 358°
2026-05-04 06:54 -26.99613 -71.14033 35985 ft 444 kts 358°
2026-05-04 06:55 -26.92020 -71.13286 35978 ft 445 kts 358°
2026-05-04 06:55 -26.84330 -71.12529 35978 ft 446 kts 358°
2026-05-04 06:57 -26.53834 -71.09537 35996 ft 445 kts 358°
2026-05-04 06:58 -26.46198 -71.08790 35993 ft 445 kts 358°
2026-05-04 06:58 -26.38554 -71.08046 35989 ft 445 kts 358°
2026-05-04 06:59 -26.30928 -71.07303 35979 ft 446 kts 358°
2026-05-04 06:59 -26.23326 -71.06560 35978 ft 445 kts 358°
2026-05-04 07:01 -25.92977 -71.03629 35990 ft 445 kts 358°
2026-05-04 07:02 -25.85364 -71.02898 35987 ft 446 kts 358°
2026-05-04 07:02 -25.77833 -71.02174 35977 ft 446 kts 358°
2026-05-04 07:03 -25.70391 -71.01462 35974 ft 446 kts 358°
2026-05-04 07:03 -25.63066 -71.00760 35978 ft 445 kts 358°
2026-05-04 07:04 -25.55637 -71.00048 35979 ft 445 kts 358°
2026-05-04 07:04 -25.48257 -70.99342 35993 ft 445 kts 358°
2026-05-04 07:05 -25.40868 -70.98638 35998 ft 446 kts 358°
2026-05-04 07:05 -25.33507 -70.97937 35993 ft 445 kts 358°
2026-05-04 07:06 -25.22454 -70.96885 35981 ft 447 kts 358°
2026-05-04 07:07 -25.15076 -70.96184 35983 ft 448 kts 358°
2026-05-04 07:09 -24.85534 -70.93388 35992 ft 450 kts 358°
2026-05-04 07:09 -24.78120 -70.92687 35993 ft 449 kts 358°
2026-05-04 07:10 -24.70729 -70.91988 35992 ft 448 kts 358°
2026-05-04 07:12 -24.41152 -70.89194 35975 ft 449 kts 357°
2026-05-04 07:12 -24.33699 -70.88600 35980 ft 447 kts 355°
2026-05-04 07:13 -24.26283 -70.88191 35980 ft 449 kts 355°
2026-05-04 07:13 -24.18824 -70.87767 35987 ft 450 kts 355°
2026-05-04 07:14 -24.00239 -70.86683 35987 ft 449 kts 355°
2026-05-04 07:15 -23.92782 -70.86248 35970 ft 449 kts 355°
2026-05-04 07:15 -23.85309 -70.85818 35972 ft 448 kts 355°
2026-05-04 07:16 -23.77911 -70.85389 35975 ft 449 kts 355°
2026-05-04 07:16 -23.70482 -70.84957 35973 ft 449 kts 355°
2026-05-04 07:17 -23.63056 -70.84525 35978 ft 449 kts 355°
2026-05-04 07:17 -23.55645 -70.84094 35970 ft 449 kts 355°
2026-05-04 07:18 -23.48228 -70.83665 35982 ft 449 kts 355°
2026-05-04 07:18 -23.40782 -70.83231 35983 ft 448 kts 355°
2026-05-04 07:19 -23.33379 -70.82803 35979 ft 449 kts 355°
2026-05-04 07:19 -23.25961 -70.82375 35973 ft 447 kts 354°
2026-05-04 07:20 -23.18521 -70.81945 35974 ft 448 kts 354°
2026-05-04 07:20 -23.11084 -70.81517 35973 ft 445 kts 355°
2026-05-04 07:22 -22.81406 -70.79813 35986 ft 447 kts 355°
2026-05-04 07:23 -22.74010 -70.79384 35973 ft 445 kts 355°
2026-05-04 07:23 -22.66654 -70.78960 35973 ft 446 kts 355°
2026-05-04 07:24 -22.59222 -70.78535 35972 ft 447 kts 355°
2026-05-04 07:24 -22.51820 -70.78110 35971 ft 445 kts 355°
2026-05-04 07:26 -22.22184 -70.76406 35973 ft 445 kts 355°
2026-05-04 07:27 -22.14754 -70.75985 35975 ft 446 kts 355°
2026-05-04 07:27 -22.07350 -70.75563 35972 ft 445 kts 355°
2026-05-04 07:28 -21.99918 -70.75144 35972 ft 445 kts 356°
2026-05-04 07:28 -21.92508 -70.74721 35972 ft 445 kts 356°
2026-05-04 07:29 -21.85183 -70.74544 35974 ft 443 kts 353°
2026-05-04 07:29 -21.77849 -70.74577 35973 ft 442 kts 352°
2026-05-04 07:30 -21.70439 -70.74614 35972 ft 443 kts 353°
2026-05-04 07:30 -21.63114 -70.74649 35969 ft 441 kts 353°
2026-05-04 07:31 -21.55834 -70.74683 35966 ft 442 kts 353°
2026-05-04 07:33 -21.26550 -70.74824 35976 ft 442 kts 353°
2026-05-04 07:33 -21.19220 -70.74860 35977 ft 442 kts 353°
2026-05-04 07:34 -21.11915 -70.74894 35976 ft 442 kts 353°
2026-05-04 07:34 -21.04578 -70.74928 35964 ft 442 kts 353°
2026-05-04 07:35 -20.97278 -70.74963 35958 ft 442 kts 353°
2026-05-04 07:35 -20.89938 -70.75002 35961 ft 443 kts 353°
2026-05-04 07:36 -20.82636 -70.75037 35962 ft 444 kts 353°